www.pogodaiklimat.ru
ПОГОДА в Вестмистере
Время
и дата
12:15 25.09
12:35 25.09
12:45 25.09
13:15 25.09
13:35 25.09
13:55 25.09
14:15 25.09
14:35 25.09
14:55 25.09
15:05 25.09
15:25 25.09
15:55 25.09
16:15 25.09
16:35 25.09
16:55 25.09
17:05 25.09
17:25 25.09
17:55 25.09
18:15 25.09
18:35 25.09
18:55 25.09
19:15 25.09
19:35 25.09
19:55 25.09
20:15 25.09
20:35 25.09
20:55 25.09
21:15 25.09
21:35 25.09
21:55 25.09
22:15 25.09
22:35 25.09
22:55 25.09
23:15 25.09
23:35 25.09
23:55 25.09
00:15 26.09
00:35 26.09
00:55 26.09
01:15 26.09
01:35 26.09
01:45 26.09
02:15 26.09
02:35 26.09
02:45 26.09
03:15 26.09
03:35 26.09
03:55 26.09
Ветер
(напр.,м/с)
Видим. Явления Облачность Т
(С)
Тd
(С)
f
(%)
Тe
(С)
Тes
(С)
Комфортность P
(гПа)
Po
(гПа)
Тmin
(С)
Tmax
(С)
R
(мм)
R24
(мм)
S
(см)
СЗ 5 16 км 5/5 1050 m
[Ac]
+22.0 +14.0 60 +25 +28 комфорт 978.9
СЗ 6
{12}
4 км 8/8 210 м +20.0 +16.0 78 +22 +23 комфорт 979.5
штиль 0 5 км 10/10 210 м +17.0 +16.0 94 +17 +17 978.2
Ю 2 16 км гроза 8/5 810 m
[Ac]
+18.0 +16.0 88 +19 +22 977.2
З 3 16 км дождь 5/0 2400 m
[Ac]
+18.0 +16.0 88 +18 +25 977.6
Ю 5
{9}
8 км сильный дождь 10/8 720 m
[Ac]
+17.0 +16.0 94 +16 +17 978.2
Ю 5 16 км гроза 5/5 660 м +18.0 +17.0 94 +18 +20 976.2
Ю 3 16 км 5/0 3600 m
[Ac]
+19.0 +17.0 88 +21 +26 комфорт 976.2
Ю 2 16 км 5/0 3300 m
[Ac]
+20.0 +17.0 83 +23 +30 комфорт 975.9
Ю 3 16 км 5/0 3300 m
[Ac]
+20.0 +17.0 83 +23 +27 комфорт 975.9
ЮВ 3 16 км ясно +21.0 +17.0 78 +25 +31 комфорт 975.6
Ю 2 16 км 5/0 2400 m
[Ac]
+22.0 +17.0 73 +26 +30 душно 975.2
Ю 2 16 км 5/0 2400 m
[Ac]
+22.0 +17.0 73 +26 +28 душно 974.9
Ю 2 16 км 8/0 2100 m
[Ac]
+22.0 +17.0 73 +26 +28 душно 975.2
Ю 3 16 км 5/0 2100 m
[Ac]
+21.0 +17.0 78 +25 +27 комфорт 974.9
Ю 3 16 км 5/0 2100 m
[Ac]
+21.0 +17.0 78 +25 +26 комфорт 974.9
Ю 3 16 км 5/0 2550 m
[Ac]
+21.0 +17.0 78 +25 +26 комфорт 974.9
штиль 0 16 км 5/0 3300 m
[Ac]
+20.0 +17.0 83 +23 +23 комфорт 974.9
штиль 0 16 км 5/5 1800 m
[Ac]
+20.0 +18.0 88 +23 +23 комфорт 975.2
Ю 2 16 км ясно +19.0 +17.0 88 +21 +21 комфорт 975.2
штиль 0 16 км гроза 5/0 2850 m
[Ac]
+19.0 +18.0 94 +21 +21 комфорт 975.2
штиль 0 16 км 8/5 1800 m
[Ac]
+19.0 +18.0 94 +21 +21 комфорт 975.2
З 4 16 км 8/5 1500 m
[Ac]
+19.0 +18.0 94 +21 +21 комфорт 975.9
З 2 16 км 5/0 2850 m
[Ac]
+19.0 +17.0 88 +21 +21 комфорт 976.6
З 2 16 км 8/0 2850 m
[Ac]
+19.0 +17.0 88 +21 +21 комфорт 976.6
штиль 0 16 км 10/0 2250 m
[Ac]
+19.0 +17.0 88 +20 +20 976.9
З 3 16 км 10/0 2100 m
[Ac]
+19.0 +15.0 78 +20 +20 977.2
З 3 16 км 10/0 2100 m
[Ac]
+19.0 +14.0 73 +20 +20 977.6
ЮЗ 2 16 км 10/0 2850 m
[Ac]
+19.0 +13.0 68 +21 +21 комфорт 977.6
З 2 16 км 10/0 2850 m
[Ac]
+19.0 +13.0 68 +21 +21 комфорт 977.6
Ю 2 16 км 10/0 2850 m
[Ac]
+18.0 +14.0 77 +19 +19 977.9
ЮЗ 3 16 км 5/0 2850 m
[Ac]
+17.0 +14.0 82 +17 +17 977.9
З 3 16 км ясно +17.0 +14.0 82 +17 +17 977.9
ЮЗ 3 16 км 5/0 2850 m
[Ac]
+16.0 +14.0 88 +16 +16 978.2
ЮЗ 3 16 км 5/0 2850 m
[Ac]
+17.0 +13.0 77 +17 +17 978.2
З 4 16 км 5/0 2850 m
[Ac]
+17.0 +13.0 77 +17 +17 978.2
ЮЗ 3 16 км 5/0 2850 m
[Ac]
+17.0 +13.0 77 +17 +17 977.9
ЮЗ 2 16 км 5/0 2850 m
[Ac]
+17.0 +13.0 77 +17 +17 977.9
ЮЗ 2 16 км 5/0 2850 m
[Ac]
+16.0 +13.0 82 +16 +16 977.9
ЮЗ 2 16 км ясно +16.0 +13.0 82 +16 +16 977.9
ЮЗ 2 16 км ясно +16.0 +13.0 82 +16 +16 977.9
ЮЗ 2 16 км ясно +16.0 +13.0 82 +16 +16 977.9
ЮЗ 2 16 км ясно +16.0 +13.0 82 +16 +16 977.9
ЮЗ 2 16 км ясно +16.0 +13.0 82 +16 +16 977.6
штиль 0 16 км ясно +16.0 +13.0 82 +16 +16 977.6
Ю 2 16 км ясно +15.0 +13.0 88 +15 +15 977.9
штиль 0 16 км ясно +16.0 +12.0 77 +16 +16 977.9
З 2 16 км ясно +16.0 +12.0 77 +16 +16 977.6
Местоположение метеостанции Carroll County Regional Jack B Poage Field: широта 39.6100 долгота -77.0100 высота над уровнем моря 241 м.
В архиве по умолчанию представлена погода в Вестмистере за последние 1-2 суток. Обновление информации о фактической погоде в базе происходит ежечасно! Архивные данные за месяц целиком и за предыдущие месяцы Вы можете получить, выбрав интересующий диапазон дат из раскрывающегося списка и нажав кнопку "Ввод!".
Внимание! Архив погоды МЕТАР в базе сайта по станциям, не включенным в климатический монитор, хранится не более 60 дней. Нет смысла пытаться выбрать более раннюю дату.
*Определитесь, кто Вы:
Внимание! Время в таблицах - местное (без учета летнего времени). Для получения всемирного времени необходимо вычесть поправку, которая равна -5 ч.
Смотрите также архив погоды в соседних городах и на ближайших метеорологических станциях:
Партнеры нашего сайта:      
Пояснения к столбцам:
  • Ветер - указаны скорость ветра в м/с - средняя за 10 мин, порывы в срок и между сроками (в фигурных скобках) и направление, откуда дует ветер: С - северный,
  • СВ - северо-восточный, В - восточный, ЮВ - юго-восточный, Ю - южный, ЮЗ - юго-западный, З - западный, СЗ - северо-западный.
  • Видимость - горизонтальная дальность видимости в метрах или километрах. При видимости от 1 до 10 км при отсутствии осадков обычно наблюдается дымка, при ухудшении видимости до 1 км и менее - туман. В сухую погоду видимость может ухудшаться дымом, пылью или мглою.
  • Явления - указаны атмосферные явления, наблюдавшиеся в срок или в последний час перед сроком; фигурными скобками обозначены явления, наблюдавшиеся между сроками (за 1-3 часа до срока); квадратными скобками обозначены град или гололедные отложения с указанием их диаметра в мм.
  • Облачность - указаны через наклонную черту общая и нижняя облачность в баллах и высота нижней границы облаков в метрах; квадратными скобками обозначены формы облаков: Ci - перистые, Cs - перисто-слоистые, Cc - перисто-кучевые, Ac - высококучевые, As - высокослоистые, Sc - слоисто-кучевые, Ns - слоисто-дождевые, Cu - кучевые, Cb - кучево-дождевые. Подробнее классификацию облаков см. в Атласе облаков (PDF).
  • T - Температура воздуха - температура, измеренная на высоте 2 м над землей.
  • Td - Температура точки росы - температура, при понижении до которой содержащийся в воздухе водяной пар достигнет насыщения.
  • f - Относительная влажность воздуха - влажноcть воздуха, измеренная на высоте 2 м над землей.
  • Te - Эффективная температура - температура, которую ощущает одетый по сезону человек в тени. Характеристика душности погоды. При расчете учитывается влияние влажности воздуха и скорости ветра на теплоощущения человека.
  • Tes - Эффективная температура на солнце - температура, которую ощущает человек, с поправкой на солнечный нагрев. Характеристика знойности погоды. Зависит от высоты солнца над горизонтом, облачности и скорости ветра. Ночью, в пасмурную погоду, а также при ветре 12 м/с и более поправка равна нулю.
  • P - Атмосферное давление - приведенное к уровню моря атмосферное давление.
  • Po - Атмосферное давление - измеренное на уровне метеостанции атмосферное давление.
  • Tmin - Минимальная температура - минимум температуры воздуха на высоте 2 м над землей.
  • Tmax - Максимальная температура - максимум температуры воздуха на высоте 2 м над землей.
  • R - Количество осадков - Количество выпавших осадков за период времени, мм. При наведении курсора мыши на число - период времени, за который выпало указанное количество осадков.
  • R24 - Количество осадков - Количество выпавших осадков за 24 часа, мм.
  • S - Снежный покров - Высота снежного покрова, см. При наведении курсора мыши на число - состояние снежного покрова и степень покрытия местности в баллах.